GEFSCGP_prec_meanprecacc_006.txt.gz
Total_Precipitation_Accumulation
0.00 0.00 0.00 0.00 0.00 0.00 0.00 0.00 0.00 0.00 0.00 0.00 0.00 0.00 0.00 0.01 0.01 0.01 0.01 0.00 0.00 0.02 0.04 0.04 0.04 0.04 0.04 0.05 0.07 0.07 0.09 0.17 0.22 0.15 0.06 0.05 0.05 0.03 0.02 0.02 0.02 0.01 0.02 0.03
0.00 0.00 0.00 0.00 0.00 0.00 0.00 0.00 0.00 0.00 0.00 0.00 0.00 0.00 0.01 0.02 0.03 0.05 0.04 0.02 0.02 0.04 0.06 0.07 0.10 0.09 0.07 0.09 0.11 0.15 0.26 0.42 0.40 0.22 0.14 0.14 0.15 0.13 0.14 0.11 0.05 0.02 0.03 0.06
0.00 0.00 0.00 0.00 0.00 0.00 0.00 0.00 0.00 0.00 0.00 0.00 0.00 0.00 0.01 0.05 0.08 0.11 0.10 0.07 0.06 0.07 0.07 0.08 0.08 0.09 0.11 0.15 0.22 0.34 0.53 0.68 0.65 0.50 0.36 0.23 0.17 0.18 0.17 0.09 0.07 0.05 0.06 0.10
0.00 0.00 0.00 0.00 0.00 0.00 0.00 0.00 0.00 0.00 0.00 0.00 0.00 0.00 0.00 0.02 0.04 0.06 0.08 0.07 0.05 0.06 0.06 0.05 0.05 0.04 0.07 0.13 0.26 0.44 0.58 0.66 0.68 0.61 0.44 0.29 0.19 0.17 0.13 0.08 0.08 0.08 0.09 0.14
0.00 0.00 0.00 0.00 0.00 0.00 0.00 0.00 0.00 0.00 0.00 0.00 0.00 0.00 0.00 0.00 0.00 0.01 0.02 0.05 0.07 0.09 0.09 0.11 0.15 0.20 0.25 0.32 0.43 0.51 0.56 0.64 0.71 0.66 0.57 0.46 0.34 0.25 0.20 0.14 0.10 0.07 0.08 0.12
0.00 0.01 0.01 0.00 0.00 0.00 0.00 0.00 0.00 0.00 0.00 0.00 0.00 0.00 0.00 0.00 0.00 0.00 0.01 0.04 0.09 0.14 0.20 0.25 0.29 0.34 0.38 0.46 0.57 0.69 0.73 0.87 0.98 0.89 0.70 0.54 0.43 0.35 0.28 0.20 0.15 0.08 0.06 0.06
0.00 0.00 0.00 0.00 0.01 0.00 0.00 0.00 0.00 0.00 0.00 0.00 0.00 0.00 0.00 0.00 0.00 0.00 0.00 0.01 0.03 0.08 0.15 0.23 0.35 0.53 0.56 0.52 0.55 0.76 1.02 1.24 1.25 1.09 0.85 0.64 0.49 0.40 0.34 0.25 0.17 0.11 0.08 0.08
0.00 0.00 0.01 0.02 0.03 0.02 0.01 0.01 0.01 0.00 0.00 0.00 0.00 0.00 0.00 0.00 0.00 0.00 0.00 0.00 0.01 0.01 0.03 0.04 0.08 0.16 0.18 0.14 0.12 0.18 0.30 0.43 0.48 0.45 0.41 0.38 0.31 0.26 0.24 0.20 0.16 0.12 0.10 0.08
0.00 0.00 0.01 0.03 0.07 0.05 0.03 0.03 0.02 0.01 0.00 0.00 0.00 0.00 0.00 0.00 0.01 0.01 0.00 0.00 0.00 0.00 0.00 0.00 0.01 0.02 0.03 0.03 0.05 0.10 0.14 0.18 0.18 0.14 0.11 0.11 0.10 0.09 0.09 0.09 0.08 0.06 0.06 0.05
0.00 0.00 0.00 0.01 0.03 0.03 0.02 0.03 0.05 0.06 0.05 0.02 0.01 0.01 0.01 0.00 0.01 0.02 0.01 0.00 0.00 0.00 0.00 0.00 0.02 0.05 0.09 0.13 0.15 0.14 0.12 0.10 0.06 0.05 0.05 0.05 0.04 0.04 0.03 0.02 0.02 0.02 0.03 0.04
0.00 0.00 0.01 0.04 0.03 0.02 0.02 0.02 0.03 0.06 0.07 0.06 0.03 0.02 0.02 0.01 0.00 0.01 0.00 0.00 0.00 0.01 0.01 0.01 0.01 0.05 0.09 0.11 0.09 0.07 0.05 0.02 0.01 0.01 0.01 0.01 0.02 0.03 0.03 0.02 0.01 0.01 0.01 0.01
0.01 0.01 0.01 0.02 0.01 0.01 0.01 0.03 0.04 0.08 0.10 0.09 0.07 0.04 0.02 0.00 0.00 0.00 0.00 0.00 0.00 0.00 0.01 0.01 0.01 0.01 0.02 0.04 0.04 0.02 0.01 0.00 0.00 0.00 0.00 0.00 0.00 0.00 0.00 0.00 0.00 0.00 0.00 0.00
0.00 0.01 0.00 0.00 0.00 0.00 0.01 0.01 0.03 0.06 0.09 0.10 0.10 0.08 0.03 0.01 0.00 0.00 0.00 0.00 0.00 0.00 0.00 0.00 0.00 0.00 0.00 0.02 0.05 0.05 0.02 0.01 0.00 0.00 0.00 0.00 0.00 0.00 0.00 0.00 0.00 0.00 0.00 0.00
0.00 0.00 0.00 0.00 0.00 0.00 0.00 0.01 0.02 0.03 0.06 0.05 0.03 0.03 0.03 0.01 0.00 0.00 0.00 0.00 0.00 0.00 0.00 0.00 0.00 0.00 0.00 0.00 0.01 0.01 0.01 0.01 0.00 0.00 0.00 0.00 0.00 0.00 0.00 0.00 0.00 0.00 0.00 0.00
0.00 0.00 0.00 0.01 0.00 0.00 0.00 0.01 0.01 0.02 0.01 0.01 0.02 0.02 0.03 0.02 0.01 0.00 0.00 0.00 0.00 0.00 0.00 0.00 0.00 0.00 0.00 0.00 0.01 0.02 0.01 0.00 0.00 0.00 0.00 0.00 0.00 0.00 0.00 0.00 0.00 0.00 0.00 0.00
0.00 0.00 0.01 0.03 0.04 0.03 0.02 0.02 0.02 0.02 0.02 0.01 0.01 0.01 0.01 0.01 0.01 0.00 0.00 0.00 0.00 0.00 0.00 0.00 0.00 0.00 0.00 0.00 0.01 0.02 0.02 0.01 0.00 0.00 0.00 0.00 0.00 0.00 0.00 0.00 0.00 0.00 0.00 0.00
0.00 0.00 0.01 0.04 0.09 0.06 0.02 0.02 0.03 0.04 0.05 0.06 0.08 0.07 0.04 0.02 0.01 0.00 0.00 0.00 0.00 0.00 0.00 0.00 0.00 0.00 0.00 0.00 0.00 0.02 0.01 0.01 0.01 0.00 0.01 0.01 0.01 0.01 0.01 0.02 0.01 0.00 0.00 0.00
0.00 0.00 0.02 0.04 0.07 0.04 0.01 0.01 0.01 0.01 0.02 0.03 0.04 0.05 0.04 0.01 0.00 0.00 0.00 0.00 0.00 0.00 0.00 0.00 0.00 0.00 0.00 0.00 0.00 0.01 0.01 0.01 0.01 0.01 0.03 0.03 0.03 0.05 0.06 0.04 0.01 0.01 0.01 0.00
0.00 0.00 0.01 0.02 0.02 0.01 0.00 0.01 0.01 0.00 0.00 0.00 0.00 0.00 0.00 0.00 0.00 0.00 0.00 0.00 0.00 0.00 0.00 0.00 0.00 0.00 0.01 0.00 0.00 0.00 0.01 0.02 0.01 0.02 0.04 0.04 0.04 0.04 0.05 0.06 0.04 0.04 0.04 0.02
0.00 0.00 0.00 0.01 0.01 0.01 0.00 0.00 0.00 0.00 0.00 0.00 0.00 0.00 0.00 0.00 0.00 0.00 0.00 0.00 0.00 0.00 0.00 0.01 0.00 0.01 0.01 0.01 0.01 0.01 0.01 0.01 0.02 0.02 0.02 0.02 0.02 0.02 0.02 0.03 0.03 0.04 0.04 0.03
0.00 0.00 0.00 0.00 0.00 0.00 0.00 0.00 0.00 0.00 0.00 0.00 0.00 0.00 0.00 0.00 0.00 0.00 0.00 0.00 0.00 0.00 0.00 0.00 0.01 0.03 0.05 0.02 0.01 0.01 0.01 0.01 0.03 0.06 0.06 0.03 0.02 0.01 0.01 0.00 0.00 0.01 0.02 0.02
0.00 0.00 0.00 0.00 0.00 0.00 0.00 0.00 0.00 0.00 0.00 0.00 0.00 0.00 0.00 0.00 0.00 0.00 0.00 0.00 0.00 0.00 0.00 0.00 0.00 0.02 0.06 0.05 0.04 0.02 0.02 0.04 0.06 0.09 0.07 0.04 0.03 0.02 0.01 0.01 0.00 0.00 0.00 0.00
0.00 0.00 0.00 0.00 0.00 0.00 0.00 0.00 0.00 0.00 0.00 0.00 0.00 0.00 0.00 0.00 0.00 0.00 0.00 0.00 0.00 0.00 0.00 0.00 0.00 0.01 0.02 0.04 0.08 0.09 0.09 0.09 0.09 0.10 0.06 0.05 0.05 0.04 0.02 0.02 0.01 0.01 0.00 0.00
0.00 0.00 0.00 0.00 0.00 0.00 0.00 0.00 0.00 0.00 0.00 0.00 0.00 0.00 0.00 0.00 0.00 0.00 0.00 0.00 0.00 0.00 0.00 0.00 0.00 0.01 0.01 0.03 0.06 0.09 0.12 0.11 0.08 0.08 0.07 0.07 0.08 0.07 0.05 0.03 0.02 0.01 0.01 0.00
0.00 0.00 0.00 0.00 0.00 0.00 0.00 0.00 0.00 0.00 0.00 0.00 0.00 0.00 0.00 0.00 0.00 0.00 0.00 0.00 0.00 0.00 0.00 0.00 0.00 0.00 0.00 0.01 0.02 0.03 0.05 0.05 0.04 0.03 0.03 0.04 0.07 0.09 0.07 0.05 0.03 0.02 0.01 0.01
0.00 0.00 0.00 0.00 0.00 0.00 0.00 0.00 0.00 0.00 0.00 0.00 0.00 0.00 0.00 0.00 0.00 0.00 0.00 0.00 0.00 0.00 0.00 0.00 0.00 0.00 0.00 0.00 0.00 0.01 0.01 0.01 0.01 0.01 0.01 0.01 0.01 0.03 0.04 0.03 0.02 0.01 0.01 0.00

GEFSCGP_prec_meanprecacc_012.txt.gz
Total_Precipitation_Accumulation
0.00 0.00 0.00 0.00 0.00 0.00 0.00 0.00 0.00 0.00 0.00 0.00 0.00 0.00 0.00 0.01 0.01 0.01 0.01 0.00 0.00 0.02 0.05 0.05 0.06 0.06 0.07 0.09 0.12 0.18 0.29 0.41 0.61 0.58 0.47 0.44 0.39 0.31 0.25 0.19 0.16 0.15 0.14 0.17
0.00 0.00 0.00 0.00 0.00 0.00 0.00 0.00 0.00 0.00 0.00 0.00 0.00 0.00 0.01 0.02 0.04 0.05 0.05 0.03 0.02 0.06 0.07 0.09 0.13 0.13 0.12 0.18 0.26 0.39 0.58 0.86 0.94 0.81 0.77 0.78 0.74 0.67 0.62 0.46 0.31 0.23 0.21 0.24
0.00 0.00 0.00 0.00 0.00 0.00 0.00 0.00 0.00 0.00 0.00 0.00 0.00 0.00 0.01 0.05 0.08 0.11 0.10 0.07 0.06 0.08 0.08 0.09 0.11 0.14 0.17 0.24 0.33 0.53 0.80 1.04 1.11 1.07 1.04 1.01 0.99 0.94 0.81 0.60 0.43 0.34 0.31 0.31
0.00 0.00 0.00 0.00 0.00 0.00 0.00 0.00 0.00 0.00 0.00 0.00 0.00 0.00 0.00 0.02 0.04 0.06 0.08 0.07 0.05 0.06 0.06 0.05 0.06 0.06 0.09 0.15 0.31 0.53 0.73 0.89 0.98 1.00 0.92 0.91 0.94 0.93 0.78 0.59 0.47 0.39 0.35 0.37
0.00 0.00 0.00 0.00 0.00 0.00 0.00 0.00 0.00 0.00 0.00 0.00 0.00 0.00 0.00 0.00 0.00 0.01 0.02 0.05 0.08 0.09 0.10 0.12 0.16 0.22 0.26 0.34 0.45 0.53 0.61 0.70 0.79 0.78 0.76 0.77 0.76 0.72 0.65 0.50 0.40 0.35 0.34 0.37
0.00 0.01 0.01 0.00 0.00 0.00 0.00 0.00 0.00 0.00 0.00 0.00 0.00 0.00 0.00 0.00 0.00 0.00 0.01 0.04 0.09 0.14 0.20 0.26 0.30 0.36 0.40 0.48 0.59 0.70 0.74 0.88 1.00 0.93 0.81 0.78 0.77 0.73 0.64 0.52 0.42 0.33 0.29 0.29
0.00 0.00 0.00 0.00 0.01 0.01 0.00 0.01 0.02 0.00 0.00 0.00 0.00 0.00 0.00 0.00 0.00 0.00 0.01 0.01 0.03 0.08 0.16 0.24 0.36 0.53 0.57 0.52 0.56 0.77 1.02 1.24 1.26 1.11 0.92 0.82 0.77 0.74 0.69 0.60 0.50 0.41 0.35 0.31
0.00 0.00 0.01 0.02 0.03 0.04 0.03 0.05 0.07 0.03 0.01 0.01 0.00 0.00 0.00 0.00 0.00 0.00 0.00 0.00 0.01 0.02 0.03 0.05 0.08 0.17 0.19 0.14 0.12 0.19 0.31 0.45 0.49 0.47 0.44 0.46 0.46 0.49 0.53 0.54 0.51 0.46 0.40 0.35
0.00 0.00 0.01 0.04 0.08 0.08 0.12 0.12 0.08 0.10 0.06 0.04 0.02 0.01 0.00 0.00 0.01 0.01 0.00 0.00 0.00 0.00 0.01 0.01 0.01 0.03 0.04 0.04 0.06 0.11 0.16 0.20 0.21 0.17 0.13 0.14 0.17 0.22 0.27 0.31 0.35 0.36 0.34 0.29
0.00 0.00 0.00 0.02 0.05 0.07 0.07 0.11 0.17 0.22 0.20 0.12 0.06 0.05 0.04 0.02 0.02 0.02 0.01 0.00 0.00 0.00 0.00 0.01 0.02 0.05 0.09 0.14 0.16 0.16 0.15 0.12 0.08 0.06 0.06 0.06 0.07 0.09 0.12 0.14 0.15 0.17 0.18 0.18
0.00 0.01 0.02 0.08 0.10 0.09 0.07 0.09 0.14 0.18 0.19 0.16 0.10 0.07 0.04 0.04 0.03 0.01 0.01 0.01 0.00 0.01 0.01 0.01 0.01 0.05 0.09 0.12 0.11 0.10 0.08 0.04 0.02 0.01 0.01 0.01 0.02 0.04 0.05 0.06 0.06 0.06 0.05 0.05
0.01 0.02 0.03 0.05 0.04 0.02 0.04 0.08 0.12 0.18 0.19 0.18 0.15 0.11 0.05 0.03 0.02 0.02 0.01 0.00 0.00 0.00 0.01 0.01 0.01 0.01 0.02 0.04 0.05 0.04 0.03 0.01 0.00 0.00 0.00 0.00 0.00 0.00 0.00 0.00 0.01 0.01 0.01 0.01
0.01 0.02 0.02 0.01 0.02 0.02 0.05 0.05 0.10 0.14 0.18 0.19 0.19 0.16 0.09 0.08 0.05 0.03 0.01 0.01 0.00 0.00 0.00 0.00 0.00 0.00 0.00 0.02 0.05 0.05 0.03 0.02 0.01 0.00 0.00 0.00 0.00 0.00 0.00 0.00 0.00 0.00 0.00 0.00
0.00 0.00 0.01 0.01 0.01 0.01 0.02 0.03 0.06 0.11 0.13 0.10 0.08 0.09 0.08 0.09 0.08 0.06 0.03 0.01 0.01 0.00 0.00 0.00 0.00 0.00 0.00 0.00 0.01 0.02 0.02 0.01 0.01 0.00 0.00 0.00 0.00 0.00 0.00 0.00 0.00 0.00 0.00 0.00
0.00 0.00 0.01 0.01 0.01 0.02 0.02 0.03 0.05 0.08 0.07 0.06 0.06 0.09 0.11 0.10 0.09 0.08 0.07 0.05 0.02 0.01 0.00 0.00 0.00 0.00 0.00 0.00 0.01 0.02 0.01 0.01 0.01 0.00 0.00 0.00 0.00 0.00 0.00 0.00 0.00 0.00 0.00 0.00
0.00 0.00 0.01 0.05 0.09 0.09 0.08 0.07 0.07 0.09 0.08 0.08 0.08 0.07 0.04 0.05 0.07 0.09 0.09 0.07 0.05 0.01 0.00 0.00 0.00 0.00 0.00 0.00 0.01 0.03 0.02 0.02 0.01 0.01 0.01 0.00 0.00 0.00 0.01 0.01 0.00 0.00 0.00 0.00
0.00 0.00 0.01 0.05 0.15 0.14 0.11 0.07 0.10 0.11 0.11 0.15 0.19 0.17 0.11 0.10 0.09 0.07 0.06 0.06 0.04 0.02 0.00 0.00 0.00 0.00 0.00 0.00 0.01 0.03 0.03 0.02 0.01 0.02 0.01 0.01 0.01 0.02 0.02 0.02 0.01 0.01 0.00 0.00
0.00 0.00 0.02 0.06 0.13 0.11 0.06 0.02 0.03 0.05 0.05 0.06 0.09 0.09 0.09 0.09 0.08 0.05 0.03 0.02 0.01 0.01 0.00 0.00 0.00 0.00 0.00 0.00 0.01 0.02 0.02 0.02 0.02 0.03 0.04 0.04 0.04 0.07 0.08 0.06 0.02 0.01 0.01 0.00
0.00 0.00 0.01 0.04 0.05 0.05 0.02 0.01 0.01 0.03 0.02 0.01 0.01 0.01 0.01 0.01 0.01 0.01 0.00 0.00 0.00 0.00 0.00 0.00 0.00 0.01 0.01 0.01 0.02 0.02 0.03 0.04 0.04 0.04 0.06 0.06 0.06 0.08 0.10 0.10 0.07 0.06 0.05 0.03
0.00 0.00 0.01 0.02 0.03 0.03 0.01 0.00 0.00 0.01 0.01 0.00 0.00 0.00 0.00 0.00 0.00 0.00 0.00 0.00 0.00 0.00 0.00 0.01 0.00 0.02 0.02 0.02 0.02 0.04 0.04 0.05 0.05 0.05 0.05 0.04 0.04 0.05 0.07 0.08 0.08 0.07 0.06 0.04
0.00 0.00 0.00 0.01 0.00 0.00 0.00 0.00 0.00 0.02 0.02 0.00 0.00 0.00 0.00 0.00 0.00 0.00 0.00 0.00 0.00 0.00 0.00 0.00 0.01 0.04 0.07 0.03 0.03 0.04 0.03 0.05 0.07 0.10 0.08 0.06 0.03 0.03 0.04 0.05 0.04 0.04 0.05 0.04
0.00 0.00 0.00 0.00 0.00 0.00 0.00 0.00 0.00 0.00 0.00 0.00 0.00 0.00 0.00 0.00 0.00 0.00 0.00 0.00 0.00 0.00 0.00 0.00 0.01 0.04 0.08 0.08 0.07 0.06 0.06 0.08 0.11 0.13 0.10 0.07 0.06 0.03 0.03 0.05 0.04 0.04 0.04 0.03
0.00 0.00 0.00 0.00 0.00 0.00 0.00 0.00 0.00 0.00 0.00 0.00 0.00 0.00 0.00 0.00 0.00 0.00 0.00 0.00 0.00 0.00 0.00 0.01 0.02 0.03 0.05 0.08 0.13 0.14 0.14 0.13 0.14 0.15 0.12 0.10 0.08 0.06 0.05 0.04 0.04 0.04 0.03 0.03
0.00 0.00 0.00 0.00 0.00 0.00 0.00 0.00 0.00 0.00 0.00 0.00 0.00 0.00 0.00 0.00 0.00 0.00 0.00 0.00 0.00 0.00 0.00 0.01 0.02 0.03 0.04 0.05 0.09 0.12 0.17 0.15 0.13 0.14 0.14 0.15 0.15 0.13 0.11 0.09 0.07 0.05 0.04 0.03
0.00 0.00 0.00 0.00 0.00 0.00 0.00 0.00 0.00 0.00 0.00 0.00 0.00 0.00 0.00 0.00 0.00 0.00 0.00 0.00 0.00 0.00 0.00 0.00 0.01 0.02 0.02 0.03 0.05 0.07 0.09 0.09 0.09 0.09 0.09 0.11 0.15 0.18 0.17 0.15 0.12 0.08 0.07 0.05
0.00 0.00 0.00 0.00 0.00 0.00 0.00 0.00 0.00 0.00 0.00 0.00 0.00 0.00 0.00 0.00 0.00 0.00 0.00 0.00 0.00 0.00 0.00 0.00 0.00 0.00 0.01 0.01 0.03 0.04 0.06 0.06 0.06 0.06 0.06 0.06 0.08 0.09 0.11 0.10 0.07 0.04 0.03 0.02

GEFSCGP_prec_meanprecacc_018.txt.gz
Total_Precipitation_Accumulation
0.00 0.00 0.00 0.00 0.00 0.00 0.00 0.00 0.00 0.00 0.00 0.00 0.00 0.00 0.00 0.01 0.01 0.02 0.01 0.00 0.01 0.03 0.05 0.05 0.06 0.06 0.07 0.09 0.15 0.22 0.33 0.44 0.66 0.66 0.57 0.59 0.60 0.56 0.51 0.41 0.33 0.30 0.28 0.31
0.00 0.00 0.00 0.00 0.00 0.00 0.00 0.00 0.00 0.00 0.00 0.00 0.00 0.00 0.01 0.02 0.04 0.05 0.05 0.03 0.03 0.09 0.08 0.09 0.14 0.13 0.13 0.23 0.35 0.49 0.68 0.96 1.04 0.93 0.91 0.95 0.94 0.88 0.87 0.74 0.54 0.38 0.31 0.32
0.00 0.00 0.00 0.00 0.00 0.00 0.00 0.00 0.00 0.00 0.00 0.00 0.00 0.00 0.01 0.05 0.08 0.11 0.10 0.07 0.06 0.08 0.08 0.09 0.12 0.15 0.20 0.30 0.41 0.61 0.90 1.16 1.25 1.24 1.22 1.16 1.15 1.06 0.95 0.76 0.58 0.45 0.37 0.36
0.00 0.00 0.00 0.00 0.00 0.00 0.00 0.00 0.00 0.00 0.00 0.00 0.00 0.00 0.00 0.02 0.04 0.06 0.08 0.07 0.05 0.07 0.07 0.07 0.07 0.07 0.11 0.18 0.34 0.57 0.79 0.96 1.07 1.11 1.05 1.05 1.08 1.04 0.91 0.72 0.54 0.43 0.37 0.40
0.00 0.00 0.00 0.00 0.00 0.00 0.00 0.00 0.00 0.00 0.00 0.00 0.00 0.00 0.00 0.00 0.00 0.01 0.02 0.05 0.08 0.09 0.10 0.13 0.18 0.23 0.28 0.36 0.47 0.56 0.64 0.73 0.82 0.81 0.79 0.82 0.83 0.79 0.72 0.56 0.45 0.40 0.39 0.42
0.00 0.01 0.01 0.00 0.00 0.00 0.00 0.00 0.00 0.00 0.00 0.00 0.00 0.00 0.00 0.00 0.00 0.01 0.03 0.06 0.10 0.15 0.21 0.26 0.31 0.37 0.41 0.48 0.60 0.71 0.75 0.90 1.01 0.94 0.82 0.80 0.79 0.75 0.68 0.57 0.49 0.41 0.39 0.40
0.00 0.00 0.00 0.00 0.01 0.01 0.00 0.02 0.05 0.03 0.01 0.00 0.00 0.00 0.00 0.01 0.00 0.02 0.05 0.06 0.06 0.08 0.16 0.24 0.36 0.54 0.57 0.53 0.56 0.78 1.04 1.25 1.27 1.11 0.92 0.82 0.77 0.75 0.72 0.65 0.58 0.52 0.48 0.45
0.00 0.00 0.01 0.02 0.03 0.04 0.03 0.06 0.15 0.11 0.04 0.02 0.01 0.01 0.03 0.02 0.03 0.03 0.03 0.03 0.02 0.02 0.03 0.05 0.08 0.17 0.19 0.15 0.13 0.20 0.34 0.47 0.51 0.49 0.46 0.48 0.48 0.52 0.57 0.59 0.58 0.57 0.56 0.52
0.00 0.00 0.01 0.04 0.08 0.08 0.13 0.14 0.11 0.22 0.18 0.14 0.04 0.02 0.06 0.04 0.06 0.04 0.03 0.02 0.01 0.01 0.01 0.02 0.02 0.04 0.05 0.06 0.09 0.15 0.22 0.25 0.25 0.19 0.15 0.17 0.21 0.27 0.34 0.39 0.42 0.45 0.47 0.45
0.00 0.00 0.01 0.02 0.05 0.07 0.08 0.13 0.27 0.40 0.37 0.25 0.11 0.09 0.17 0.19 0.19 0.20 0.14 0.06 0.02 0.01 0.01 0.01 0.03 0.06 0.12 0.18 0.22 0.24 0.22 0.17 0.10 0.07 0.07 0.07 0.09 0.12 0.16 0.19 0.20 0.23 0.26 0.29
0.00 0.01 0.02 0.08 0.11 0.10 0.09 0.14 0.27 0.37 0.36 0.31 0.23 0.20 0.16 0.20 0.28 0.36 0.31 0.15 0.07 0.04 0.03 0.03 0.04 0.08 0.12 0.16 0.16 0.17 0.13 0.07 0.04 0.02 0.02 0.01 0.03 0.05 0.06 0.07 0.06 0.07 0.08 0.08
0.01 0.02 0.03 0.05 0.04 0.02 0.06 0.14 0.26 0.40 0.41 0.38 0.32 0.25 0.11 0.09 0.15 0.21 0.19 0.10 0.06 0.04 0.03 0.02 0.02 0.03 0.04 0.07 0.08 0.07 0.05 0.03 0.01 0.00 0.00 0.00 0.00 0.00 0.00 0.01 0.01 0.01 0.01 0.01
0.01 0.02 0.02 0.02 0.04 0.05 0.09 0.09 0.16 0.26 0.34 0.35 0.34 0.30 0.17 0.14 0.15 0.15 0.12 0.08 0.04 0.03 0.03 0.02 0.01 0.01 0.01 0.03 0.07 0.07 0.05 0.03 0.01 0.00 0.00 0.01 0.00 0.00 0.00 0.00 0.00 0.00 0.00 0.00
0.00 0.00 0.01 0.02 0.03 0.03 0.05 0.06 0.10 0.18 0.27 0.23 0.17 0.18 0.21 0.23 0.22 0.17 0.12 0.07 0.03 0.02 0.02 0.02 0.01 0.01 0.00 0.01 0.02 0.03 0.04 0.03 0.01 0.00 0.01 0.01 0.01 0.00 0.00 0.00 0.00 0.00 0.00 0.00
0.00 0.00 0.01 0.01 0.01 0.02 0.02 0.03 0.06 0.10 0.13 0.17 0.15 0.19 0.27 0.29 0.24 0.17 0.11 0.07 0.04 0.03 0.02 0.01 0.01 0.01 0.01 0.01 0.02 0.04 0.03 0.02 0.02 0.02 0.02 0.02 0.01 0.01 0.01 0.01 0.01 0.00 0.00 0.00
0.00 0.00 0.01 0.05 0.09 0.09 0.08 0.07 0.08 0.09 0.09 0.11 0.14 0.20 0.22 0.19 0.16 0.13 0.11 0.08 0.07 0.05 0.03 0.02 0.01 0.01 0.01 0.01 0.03 0.04 0.05 0.04 0.04 0.04 0.03 0.02 0.02 0.02 0.02 0.02 0.02 0.01 0.00 0.00
0.00 0.00 0.01 0.05 0.15 0.15 0.13 0.07 0.10 0.12 0.12 0.19 0.30 0.31 0.23 0.18 0.14 0.09 0.07 0.06 0.05 0.04 0.03 0.02 0.01 0.01 0.01 0.01 0.03 0.05 0.05 0.03 0.02 0.03 0.03 0.02 0.03 0.05 0.06 0.05 0.03 0.03 0.01 0.01
0.00 0.00 0.02 0.06 0.14 0.14 0.08 0.02 0.03 0.06 0.06 0.08 0.14 0.15 0.12 0.12 0.10 0.06 0.03 0.02 0.02 0.02 0.01 0.01 0.01 0.01 0.01 0.02 0.03 0.06 0.06 0.04 0.03 0.04 0.05 0.05 0.05 0.09 0.10 0.08 0.04 0.03 0.02 0.03
0.00 0.00 0.01 0.04 0.06 0.06 0.02 0.01 0.01 0.05 0.05 0.01 0.03 0.03 0.02 0.01 0.01 0.02 0.01 0.00 0.00 0.00 0.00 0.01 0.01 0.01 0.02 0.03 0.05 0.08 0.08 0.08 0.07 0.07 0.08 0.08 0.08 0.10 0.11 0.11 0.08 0.07 0.07 0.05
0.00 0.00 0.01 0.02 0.04 0.04 0.02 0.00 0.00 0.01 0.06 0.01 0.00 0.01 0.00 0.00 0.04 0.06 0.01 0.00 0.00 0.00 0.00 0.01 0.01 0.02 0.04 0.06 0.08 0.12 0.11 0.12 0.12 0.09 0.07 0.06 0.06 0.08 0.10 0.11 0.11 0.11 0.11 0.07
0.00 0.00 0.00 0.01 0.01 0.00 0.00 0.00 0.00 0.04 0.10 0.01 0.00 0.00 0.00 0.00 0.03 0.02 0.01 0.00 0.00 0.00 0.00 0.00 0.02 0.06 0.10 0.08 0.10 0.12 0.11 0.12 0.12 0.12 0.10 0.07 0.05 0.06 0.08 0.10 0.11 0.12 0.12 0.08
0.00 0.00 0.00 0.00 0.00 0.00 0.00 0.00 0.00 0.01 0.01 0.00 0.00 0.00 0.00 0.00 0.00 0.00 0.00 0.00 0.00 0.00 0.00 0.01 0.03 0.08 0.12 0.11 0.13 0.13 0.12 0.13 0.14 0.15 0.11 0.09 0.07 0.04 0.05 0.10 0.12 0.13 0.12 0.08
0.00 0.00 0.00 0.00 0.00 0.00 0.00 0.00 0.00 0.00 0.00 0.00 0.00 0.00 0.00 0.00 0.00 0.00 0.00 0.00 0.00 0.00 0.00 0.01 0.04 0.08 0.09 0.11 0.17 0.20 0.19 0.15 0.16 0.16 0.13 0.12 0.10 0.07 0.06 0.07 0.09 0.09 0.08 0.07
0.00 0.00 0.00 0.00 0.00 0.00 0.00 0.00 0.00 0.00 0.00 0.00 0.00 0.00 0.00 0.00 0.00 0.00 0.00 0.00 0.00 0.00 0.00 0.01 0.04 0.07 0.10 0.10 0.13 0.17 0.19 0.17 0.15 0.17 0.16 0.17 0.18 0.15 0.12 0.11 0.09 0.07 0.06 0.05
0.00 0.00 0.00 0.00 0.00 0.00 0.00 0.00 0.00 0.00 0.00 0.00 0.00 0.00 0.00 0.00 0.00 0.00 0.00 0.00 0.00 0.00 0.00 0.01 0.03 0.06 0.07 0.07 0.09 0.11 0.12 0.12 0.13 0.13 0.13 0.16 0.20 0.21 0.19 0.16 0.13 0.10 0.08 0.06
0.00 0.00 0.00 0.00 0.00 0.00 0.00 0.00 0.00 0.00 0.00 0.00 0.00 0.00 0.00 0.00 0.00 0.00 0.00 0.00 0.00 0.00 0.00 0.00 0.01 0.02 0.04 0.04 0.06 0.09 0.10 0.10 0.13 0.13 0.14 0.14 0.15 0.14 0.14 0.13 0.07 0.04 0.03 0.03

GEFSCGP_prec_meanprecacc_024.txt.gz
Total_Precipitation_Accumulation
0.00 0.00 0.00 0.00 0.00 0.00 0.00 0.00 0.00 0.00 0.00 0.00 0.00 0.00 0.00 0.01 0.02 0.02 0.05 0.13 0.21 0.26 0.38 0.48 0.47 0.38 0.30 0.26 0.24 0.28 0.38 0.48 0.68 0.67 0.59 0.60 0.62 0.58 0.52 0.43 0.37 0.34 0.32 0.34
0.00 0.00 0.00 0.00 0.00 0.00 0.00 0.00 0.00 0.00 0.00 0.00 0.00 0.00 0.01 0.02 0.04 0.05 0.05 0.05 0.16 0.33 0.47 0.60 0.61 0.54 0.53 0.66 0.74 0.76 0.84 1.07 1.11 0.98 0.95 0.98 0.98 0.91 0.90 0.77 0.59 0.43 0.36 0.37
0.00 0.00 0.00 0.00 0.00 0.00 0.00 0.00 0.00 0.00 0.00 0.00 0.00 0.00 0.01 0.05 0.08 0.11 0.11 0.09 0.10 0.16 0.20 0.27 0.31 0.37 0.45 0.59 0.71 0.88 1.13 1.35 1.38 1.34 1.28 1.20 1.18 1.10 1.00 0.81 0.64 0.50 0.41 0.40
0.00 0.00 0.00 0.00 0.00 0.00 0.00 0.00 0.00 0.00 0.00 0.00 0.00 0.00 0.00 0.02 0.04 0.06 0.09 0.10 0.11 0.16 0.18 0.18 0.20 0.22 0.30 0.36 0.53 0.79 1.04 1.20 1.27 1.29 1.17 1.14 1.14 1.09 1.00 0.79 0.58 0.46 0.41 0.43
0.00 0.00 0.00 0.00 0.00 0.00 0.00 0.00 0.00 0.00 0.00 0.00 0.00 0.00 0.00 0.00 0.01 0.02 0.06 0.11 0.17 0.23 0.27 0.30 0.35 0.40 0.44 0.52 0.65 0.77 0.87 0.98 1.04 1.00 0.95 0.95 0.92 0.87 0.80 0.61 0.47 0.42 0.41 0.44
0.00 0.01 0.01 0.00 0.00 0.00 0.00 0.00 0.00 0.00 0.00 0.00 0.00 0.00 0.00 0.00 0.00 0.03 0.10 0.15 0.23 0.31 0.39 0.47 0.50 0.55 0.58 0.69 0.80 0.87 0.91 1.04 1.15 1.06 0.93 0.90 0.88 0.82 0.73 0.60 0.51 0.44 0.41 0.41
0.00 0.00 0.00 0.00 0.01 0.01 0.00 0.02 0.05 0.03 0.01 0.00 0.00 0.00 0.02 0.02 0.02 0.07 0.16 0.20 0.24 0.29 0.35 0.43 0.54 0.71 0.74 0.66 0.66 0.85 1.11 1.32 1.34 1.18 0.99 0.88 0.83 0.80 0.76 0.67 0.59 0.53 0.48 0.45
0.00 0.00 0.01 0.03 0.03 0.04 0.04 0.06 0.16 0.13 0.04 0.02 0.01 0.02 0.08 0.08 0.12 0.16 0.20 0.23 0.23 0.20 0.17 0.16 0.17 0.25 0.27 0.24 0.20 0.24 0.37 0.51 0.54 0.52 0.48 0.50 0.50 0.53 0.58 0.59 0.58 0.58 0.56 0.52
0.00 0.00 0.01 0.04 0.08 0.09 0.14 0.14 0.12 0.24 0.21 0.17 0.04 0.03 0.10 0.12 0.19 0.24 0.25 0.22 0.19 0.15 0.12 0.12 0.12 0.13 0.14 0.13 0.15 0.19 0.25 0.29 0.28 0.22 0.17 0.18 0.21 0.27 0.34 0.39 0.42 0.46 0.47 0.45
0.00 0.00 0.01 0.02 0.05 0.07 0.08 0.14 0.28 0.44 0.42 0.29 0.12 0.10 0.23 0.32 0.33 0.36 0.37 0.34 0.26 0.19 0.17 0.17 0.18 0.20 0.25 0.29 0.31 0.31 0.28 0.21 0.14 0.10 0.08 0.08 0.10 0.13 0.16 0.19 0.20 0.23 0.26 0.29
0.00 0.01 0.02 0.08 0.11 0.10 0.10 0.15 0.29 0.42 0.44 0.41 0.32 0.27 0.23 0.31 0.43 0.56 0.58 0.47 0.32 0.25 0.21 0.20 0.19 0.20 0.23 0.27 0.27 0.25 0.20 0.13 0.08 0.06 0.04 0.03 0.04 0.05 0.06 0.07 0.06 0.07 0.08 0.08
0.01 0.02 0.03 0.05 0.04 0.02 0.07 0.14 0.27 0.43 0.48 0.48 0.44 0.34 0.16 0.18 0.29 0.40 0.42 0.33 0.24 0.20 0.17 0.14 0.11 0.10 0.11 0.14 0.16 0.14 0.11 0.08 0.05 0.03 0.01 0.01 0.00 0.00 0.00 0.01 0.01 0.01 0.01 0.01
0.01 0.02 0.02 0.02 0.04 0.05 0.09 0.09 0.16 0.26 0.35 0.38 0.40 0.35 0.22 0.25 0.33 0.38 0.39 0.34 0.24 0.18 0.15 0.10 0.06 0.04 0.04 0.06 0.10 0.10 0.08 0.05 0.03 0.02 0.01 0.01 0.01 0.00 0.00 0.00 0.00 0.00 0.00 0.00
0.00 0.00 0.01 0.02 0.03 0.03 0.05 0.06 0.10 0.19 0.28 0.24 0.19 0.20 0.25 0.30 0.35 0.37 0.35 0.28 0.18 0.13 0.10 0.07 0.04 0.03 0.02 0.02 0.03 0.04 0.07 0.05 0.02 0.01 0.01 0.02 0.01 0.01 0.00 0.00 0.00 0.00 0.00 0.00
0.00 0.00 0.01 0.01 0.01 0.02 0.02 0.03 0.06 0.10 0.13 0.18 0.16 0.21 0.29 0.33 0.31 0.29 0.28 0.24 0.17 0.12 0.08 0.05 0.03 0.02 0.02 0.02 0.03 0.05 0.05 0.04 0.04 0.04 0.04 0.04 0.03 0.01 0.01 0.01 0.01 0.00 0.00 0.00
0.00 0.00 0.01 0.05 0.09 0.09 0.08 0.07 0.08 0.09 0.09 0.12 0.15 0.22 0.25 0.24 0.24 0.25 0.24 0.21 0.17 0.11 0.07 0.05 0.04 0.03 0.03 0.02 0.04 0.06 0.07 0.06 0.06 0.07 0.06 0.05 0.04 0.03 0.03 0.02 0.02 0.01 0.01 0.00
0.00 0.00 0.01 0.05 0.15 0.15 0.13 0.07 0.10 0.12 0.12 0.20 0.31 0.33 0.27 0.26 0.22 0.18 0.15 0.12 0.09 0.06 0.04 0.03 0.03 0.03 0.02 0.02 0.04 0.07 0.09 0.07 0.05 0.04 0.04 0.04 0.04 0.06 0.07 0.05 0.03 0.03 0.02 0.01
0.00 0.00 0.02 0.06 0.14 0.14 0.08 0.02 0.03 0.06 0.06 0.08 0.14 0.16 0.14 0.16 0.13 0.08 0.04 0.03 0.03 0.02 0.02 0.02 0.01 0.01 0.01 0.02 0.04 0.07 0.10 0.08 0.06 0.05 0.06 0.05 0.06 0.09 0.11 0.08 0.04 0.03 0.02 0.03
0.00 0.00 0.01 0.04 0.06 0.07 0.02 0.01 0.01 0.05 0.05 0.01 0.03 0.04 0.02 0.01 0.02 0.03 0.01 0.01 0.01 0.00 0.00 0.01 0.01 0.01 0.02 0.03 0.06 0.11 0.12 0.13 0.12 0.10 0.09 0.08 0.08 0.10 0.11 0.11 0.09 0.07 0.07 0.05
0.00 0.00 0.01 0.02 0.04 0.05 0.02 0.00 0.00 0.01 0.06 0.01 0.00 0.01 0.00 0.01 0.05 0.07 0.02 0.00 0.00 0.00 0.00 0.01 0.01 0.02 0.04 0.06 0.10 0.16 0.17 0.18 0.16 0.12 0.09 0.06 0.06 0.08 0.10 0.11 0.11 0.11 0.11 0.07
0.00 0.00 0.00 0.01 0.01 0.00 0.00 0.00 0.00 0.04 0.10 0.01 0.00 0.00 0.00 0.00 0.03 0.02 0.01 0.00 0.00 0.00 0.00 0.00 0.02 0.06 0.11 0.09 0.13 0.16 0.16 0.16 0.14 0.14 0.11 0.08 0.05 0.06 0.08 0.11 0.11 0.13 0.12 0.08
0.00 0.00 0.00 0.00 0.00 0.00 0.00 0.00 0.00 0.01 0.01 0.00 0.00 0.00 0.00 0.00 0.00 0.00 0.00 0.00 0.00 0.00 0.00 0.01 0.03 0.08 0.13 0.13 0.15 0.15 0.15 0.15 0.16 0.16 0.12 0.09 0.07 0.04 0.05 0.10 0.12 0.13 0.12 0.08
0.00 0.00 0.00 0.00 0.00 0.00 0.00 0.00 0.00 0.00 0.00 0.00 0.00 0.00 0.00 0.00 0.00 0.00 0.00 0.00 0.00 0.00 0.00 0.01 0.04 0.09 0.10 0.13 0.19 0.22 0.20 0.17 0.17 0.17 0.14 0.12 0.10 0.08 0.06 0.08 0.09 0.09 0.09 0.08
0.00 0.00 0.00 0.00 0.00 0.00 0.00 0.00 0.00 0.00 0.00 0.00 0.00 0.00 0.00 0.00 0.00 0.00 0.00 0.00 0.00 0.00 0.00 0.01 0.05 0.08 0.11 0.11 0.15 0.19 0.21 0.18 0.16 0.17 0.17 0.17 0.18 0.15 0.12 0.11 0.09 0.07 0.06 0.05
0.00 0.00 0.00 0.00 0.00 0.00 0.00 0.00 0.00 0.00 0.00 0.00 0.00 0.00 0.00 0.00 0.00 0.00 0.00 0.00 0.00 0.00 0.00 0.01 0.03 0.06 0.08 0.08 0.10 0.12 0.13 0.12 0.13 0.14 0.14 0.17 0.20 0.21 0.19 0.16 0.13 0.10 0.08 0.06
0.00 0.00 0.00 0.00 0.00 0.00 0.00 0.00 0.00 0.00 0.00 0.00 0.00 0.00 0.00 0.00 0.00 0.00 0.00 0.00 0.00 0.00 0.00 0.00 0.01 0.02 0.04 0.05 0.07 0.09 0.11 0.10 0.13 0.13 0.14 0.14 0.15 0.14 0.14 0.13 0.07 0.04 0.03 0.03